Location: East Guldeford
(50.9500°N, 0.7500°E)
Time: 09:11:27
(UTC+00:00)

ATLAS 5 CENTAUR R/B - Pass Details

Date: 12 May 2021
Orbit: 516 x 1141 km, 63.3° (Epoch: 02 May)

Event Time Altitude Azimuth Distance (km) Brightness Sun altitude
Rises 20:18:10 0° 312° (NW) 3,228 8.0 -6.2°
Reaches altitude 10° 20:20:29 10° 306° (NW) 2,391 6.4 -6.5°
Maximum altitude 20:25:46 45° 236° (SW) 1,221 3.2 -7.1°
Drops below altitude 10° 20:31:55 10° 166° (SSE) 2,783 4.4 -7.9°
Enters shadow 20:33:25 - 163° (SSE) 3,313 4.7 -8.0°
